User: anonymous
Location: Oshawa
(43.9000°N, 78.8670°W)
Time: 17:55:11
(UTC-04:00)
Language:

Explorer 11/Cluster Stage 4 - Orbit

View from above orbital plane
View from above orbital plane
View from above satellite
View from above satellite

Ground track
Ground track

The orbit data is extracted from the following two-line orbital elements,

1 00107U 61013A   14272.48042615  .00006474  00000-0  88505-3 0  1492
2 00107 028.7868 077.0851 0561515 106.5074 288.3177 14.05255977671255
Epoch (UTC): 29 September 2014 11:31:48
Eccentricity: 0.0561515
inclination: 28.7868°
perigee height: 468 km
apogee height: 1283 km
right ascension of ascending node: 77.0851°
argument of perigee: 106.5074°
revolutions per day: 14.05255977
mean anomaly at epoch: 288.3177°
orbit number at epoch: 67125

The dashed part of the orbit path shows where the satellite is in the earth's shadow,  

DLR